Location: Poprad
(49.0500°N, 20.3000°E)
Time: 11:05:13
(UTC+02:00)

AO-73 - Pass Details

Date: 27 April 2024
Orbit: 559 x 625 km, 97.7° (Epoch: 29 May)

Event Time Altitude Azimuth Distance (km) Brightness Sun altitude
Rises 03:18:56 0° 20° (NNE) 2,922 ? -17.5°
Reaches altitude 10° 03:21:17 10° 29° (NNE) 2,013 ? -17.2°
Maximum altitude 03:25:21 37° 97° (E) 988 ? -16.8°
Drops below altitude 10° 03:29:23 10° 165° (SSE) 1,995 ? -16.3°
Enters shadow 03:29:28 10° 165° (SSE) 2,021 ? -16.3°
